Terminal Aerodrome Forecast
Issued by NWS

Current Version | Previous Version | Graphics & Text | Print | Product List | Glossary On
Versions: 1 2 3 4 5 6 7 8 9 10 11 12 13 14 15 16 17 18 19
000
FTUS41 KPBZ 040923 AAB
TAFHLG
TAF AMD
KHLG 040923Z 0409/0506 24005KT P6SM SCT060
     FM041500 29012KT P6SM SCT050
     FM042300 VRB05KT P6SM SKC=

USA.gov is the U.S. government's official web portal to all federal, state and local government web resources and services.